EW0600 Weather Reports


Display with metric or nautical units.
time (UTC)temp
F
wind
direction
speed
MPH
gust
MPH
rain 1hr
in
rain 24hr
in
rain mn
in
humidity
%
barometer
mb
20260504040238 54 195 1.0 2.0 0.00 0.00 0.00 53 999.5
20260504040003 54 205 2.0 3.0 0.00 0.00 0.00 52 999.6
20260504035228 56 201 1.0 2.0 0.00 0.00 0.00 50 999.6
20260504034602 55 203 1.0 3.0 0.00 0.00 0.00 49 999.8
20260504034235 56 182 1.0 2.0 0.00 0.00 0.00 49 999.8
20260504033003 55 174 1.0 4.0 0.00 0.00 0.00 49 1000.1
20260504032022 56 179 2.0 3.0 0.00 0.00 0.00 50 1000.1
20260504031604 55 207 3.0 4.0 0.00 0.00 0.00 49 1000.3
20260504030007 57 211 2.0 3.0 0.00 0.00 0.00 46 1000.5
20260504025833 58 211 1.0 2.0 0.00 0.00 0.00 46 1000.4
20260504024836 59 211 1.0 2.0 0.00 0.00 0.00 44 1000.5
20260504024602 58 211 1.0 3.0 0.00 0.00 0.00 44 1000.4
20260504023826 59 211 0.0 2.0 0.00 0.00 0.00 44 1000.5
20260504023003 60 215 1.0 3.0 0.00 0.00 0.00 43 1000.5
20260504021654 60 216 3.0 4.0 0.00 0.00 0.00 43 1000.4
20260504021602 60 215 3.0 4.0 0.00 0.00 0.00 43 1000.4
20260504020622 60 215 3.0 4.0 0.00 0.00 0.00 43 1000.4
20260504020004 60 221 3.0 4.0 0.00 0.00 0.00 43 1000.5
20260504015600 61 221 1.0 2.0 0.00 0.00 0.00 41 1000.5
20260504014611 62 264 1.0 3.0 0.00 0.00 0.00 38 1000.6
20260504013439 63 269 2.0 4.0 0.00 0.00 0.00 38 1000.7
20260504013009 63 261 2.0 5.0 0.00 0.00 0.00 37 1000.8
20260504012450 65 274 3.0 4.0 0.00 0.00 0.00 36 1000.8
20260504011604 64 274 3.0 6.0 0.00 0.00 0.00 35 1000.8
20260504011504 65 273 3.0 5.0 0.00 0.00 0.00 35 1000.8
20260504010002 66 281 4.0 5.0 0.00 0.00 0.00 32 1000.8
20260504004643 66 291 4.0 6.0 0.00 0.00 0.00 32 1000.8
20260504003136 67 287 6.0 11.0 0.00 0.00 0.00 33 1000.9
20260504003005 67 285 6.0 12.0 0.00 0.00 0.00 32 1000.9
20260504001623 67 281 6.0 14.0 0.00 0.00 0.00 33 1001.1
20260504001038 68 285 9.0 15.0 0.00 0.00 0.00 30 1001.1
20260504000031 68 277 13.0 17.0 0.00 0.00 0.00 28 1001.1
20260504000002 68 283 13.0 18.0 0.00 0.00 0.00 28 1001.1
20260503234606 68 278 11.0 18.0 0.00 0.00 0.00 29 1001.1
20260503233934 69 298 10.0 20.0 0.00 0.00 0.00 32 1001.1
20260503233006 69 298 7.0 21.0 0.00 0.00 0.00 32 1001.3
20260503232908 69 302 12.0 20.0 0.00 0.00 0.00 31 1001.2
20260503231838 69 283 11.0 18.0 0.00 0.00 0.00 30 1001.3
20260503231603 69 309 10.0 18.0 0.00 0.00 0.00 30 1001.4
20260503230828 69 300 11.0 18.0 0.00 0.00 0.00 30 1001.3
20260503230002 68 285 10.0 17.0 0.00 0.00 0.00 30 1001.4
20260503224718 70 278 10.0 16.0 0.00 0.00 0.00 32 1001.5
20260503224609 69 283 11.0 17.0 0.00 0.00 0.00 33 1001.6
20260503223722 69 304 11.0 18.0 0.00 0.00 0.00 32 1001.5
20260503223002 69 305 12.0 19.0 0.00 0.00 0.00 30 1001.7
20260503221605 68 296 14.0 21.0 0.00 0.00 0.00 29 1001.7
20260503221545 69 309 12.0 20.0 0.00 0.00 0.00 29 1001.6
20260503220003 68 300 9.0 19.0 0.00 0.00 0.00 30 1001.7
20260503215436 69 311 14.0 21.0 0.00 0.00 0.00 30 1001.7
20260503214604 68 300 13.0 22.0 0.00 0.00 0.00 28 1001.7
20260503214439 69 279 15.0 24.0 0.00 0.00 0.00 30 1001.7
20260503213007 68 316 18.0 25.0 0.00 0.00 0.00 30 1001.9
20260503212244 68 309 15.0 22.0 0.00 0.00 0.00 33 1001.8
20260503211606 68 314 18.0 23.0 0.00 0.00 0.00 32 1001.9
20260503211303 69 313 12.0 21.0 0.00 0.00 0.00 35 1001.8
20260503210244 69 293 13.0 21.0 0.00 0.00 0.00 36 1001.9
20260503210002 68 304 15.0 21.0 0.00 0.00 0.00 34 1002.0
20260503205251 68 309 11.0 19.0 0.00 0.00 0.00 34 1002.1
20260503204601 68 309 10.0 17.0 0.00 0.00 0.00 35 1002.2
20260503203058 68 276 13.0 21.0 0.00 0.00 0.00 35 1002.5
20260503203006 68 311 12.0 22.0 0.00 0.00 0.00 35 1002.5
20260503202033 67 299 9.0 19.0 0.00 0.00 0.00 35 1002.4
20260503201502 67 312 7.0 20.0 0.00 0.00 0.00 36 1002.5
20260503200107 67 326 9.0 19.0 0.00 0.00 0.00 33 1002.7
20260503194756 67 304 14.0 23.0 0.00 0.00 0.00 35 1003.0
20260503194502 67 314 14.0 24.0 0.00 0.00 0.00 38 1003.0
20260503193808 67 312 14.0 25.0 0.00 0.00 0.00 34 1003.0
20260503193101 67 304 15.0 27.0 0.00 0.00 0.00 35 1003.1
20260503192751 67 314 17.0 26.0 0.00 0.00 0.00 34 1003.0
20260503191502 66 316 14.0 28.0 0.00 0.00 0.00 36 1002.9
20260503190609 66 323 16.0 27.0 0.00 0.00 0.00 35 1003.0
20260503190110 66 321 15.0 24.0 0.00 0.00 0.00 37 1003.1
20260503185549 66 301 17.0 24.0 0.00 0.00 0.00 37 1003.1
20260503184608 67 323 16.0 22.0 0.00 0.00 0.00 37 1003.1
20260503184502 66 282 18.0 22.0 0.00 0.00 0.00 37 1003.1
20260503183621 67 300 14.0 22.0 0.00 0.00 0.00 41 1003.1
20260503183104 66 330 11.0 22.0 0.00 0.00 0.00 44 1003.3
20260503182611 66 307 13.0 24.0 0.00 0.00 0.00 40 1003.2
20260503181625 66 328 14.0 24.0 0.00 0.00 0.00 41 1003.3
20260503181504 65 351 10.0 25.0 0.00 0.00 0.00 40 1003.4
20260503180609 66 320 13.0 22.0 0.00 0.00 0.00 40 1003.4
20260503180105 65 317 16.0 23.0 0.00 0.00 0.00 42 1003.5
20260503174519 65 309 13.0 21.0 0.00 0.00 0.00 42 1003.5
20260503174503 65 293 13.0 22.0 0.00 0.00 0.00 42 1003.6
20260503173106 65 360 12.0 23.0 0.00 0.00 0.00 43 1003.6
20260503172411 65 332 13.0 23.0 0.00 0.00 0.00 42 1003.6
20260503171345 65 307 14.0 21.0 0.00 0.00 0.00 48 1003.6
20260503160130 63 352 15.0 22.0 0.00 0.00 0.00 48 1003.7
20260503130536 53 321 8.0 12.0 0.00 0.00 0.00 62 1002.6
20260503110306 51 195 6.0 8.0 0.00 0.00 0.00 59 1001.2
20260503110104 51 212 6.0 9.0 0.00 0.00 0.00 59 1001.3
20260503100111 53 220 8.0 13.0 0.00 0.00 0.00 56 1001.7
20260503100108 54 220 8.0 15.0 0.00 0.00 0.00 56 1001.6
20260503080822 56 161 8.0 14.0 0.00 0.00 0.00 54 1002.4
20260503080103 56 198 8.0 17.0 0.00 0.00 0.00 53 1002.4
20260503072733 57 211 8.0 14.0 0.00 0.00 0.00 56 1002.9
20260503071502 56 194 8.0 14.0 0.00 0.00 0.00 58 1003.2
20260503070659 56 209 10.0 15.0 0.00 0.00 0.00 60 1003.5
20260503070103 55 188 10.0 14.0 0.00 0.00 0.00 62 1003.6
20260503060119 51 242 16.0 36.0 0.00 0.00 0.00 90 1005.4
20260503054502 58 282 17.0 28.0 0.00 0.00 0.00 58 1005.7
20260503054217 60 255 17.0 27.0 0.00 0.00 0.00 54 1005.6
20260503053237 59 262 11.0 18.0 0.00 0.00 0.00 50 1005.6
20260503053103 59 263 15.0 19.0 0.00 0.00 0.00 50 1005.5
20260503051502 57 229 10.0 17.0 0.00 0.00 0.00 51 1005.2
20260503051155 58 243 11.0 16.0 0.00 0.00 0.00 50 1005.3
20260503050138 57 224 8.0 14.0 0.00 0.00 0.00 53 1005.4
20260503045120 57 200 7.0 11.0 0.00 0.00 0.00 52 1005.2
20260503044503 57 192 7.0 12.0 0.00 0.00 0.00 52 1005.4
20260503044107 57 194 7.0 11.0 0.00 0.00 0.00 52 1005.4
20260503043103 56 214 6.0 9.0 0.00 0.00 0.00 52 1005.6
20260503043039 57 212 5.0 8.0 0.00 0.00 0.00 52 1005.5
20260503042047 57 193 4.0 6.0 0.00 0.00 0.00 51 1005.8
20260503041505 57 201 4.0 8.0 0.00 0.00 0.00 50 1005.9
20260503041038 58 200 3.0 7.0 0.00 0.00 0.00 50 1005.9